Location: Bron Breck
(40.6655°N, 111.8083°W)
Time: 01:58:00
(UTC+00:00)

N. Korean satellite - Pass Details

Date: 08 March 2021
Orbit: 453 x 499 km, 97.2° (Epoch: 11 April)

Event Time Altitude Azimuth Distance (km) Brightness Sun altitude
Rises 12:35:56 0° 16° (NNE) 2,543 10.5 -14.8°
Reaches altitude 10° 12:38:02 10° 22° (NNE) 1,667 9.6 -14.4°
Maximum altitude 12:41:32 52° 99° (E) 609 7.4 -13.7°
Drops below altitude 10° 12:45:05 10° 178° (S) 1,678 9.3 -13.1°
Sets 12:47:11 0° 183° (S) 2,561 10.2 -12.7°
